Regional Weather Roundup
Issued by NWS

Home | Current Version | Previous Version | Graphics & Text | Print | Product List | Glossary On
Versions: 1 2 3 4 5 6 7 8 9 10 11 12 13 14 15 16 17 18 19 20 21 22 23 24 25 26 27 28 29 30 31 32 33 34 35 36 37 38 39 40 41 42 43 44 45 46 47 48 49 50
000
ASUS43 KDMX 211901
RWRIA

WEATHER ROUNDUP FOR IOWA
NATIONAL WEATHER SERVICE DES MOINES IA
100 PM CST SUN JAN 21 2018

NOTE: "FAIR" INDICATES FEW OR NO CLOUDS BELOW 12,000 FEET WITH NO
SIGNIFICANT WEATHER AND/OR OBSTRUCTIONS TO VISIBILITY.

* - THESE STATIONS ARE NOT NWS STATIONS...THUS NOT UNDER NWS
QUALITY CONTROL.  THEY ALSO DO NOT REPORT WEATHER SUCH
AS PRECIPITATION OR FOG.

IAZ001>003-012>014-020>022-031>034-043>046-212000-
   NORTHWEST IOWA

CITY           SKY/WX    TMP DP  RH WIND       PRES   REMARKS
CARROLL *      FOG       37  37 100 NE12      29.77F VSB 1/2 WCI  30
DENISON *      FOG       36  36 100 NE9       29.80F VSB 1   WCI  29
LE MARS *      CLOUDY    39  32  75 NE14      29.86F WCI  31
ORANGE CITY *  CLOUDY    39  34  81 NE10      29.87F WCI  32
SHELDON *      CLOUDY    39  32  75 NE16G22   29.85S WCI  30
SIOUX CITY     CLOUDY    37  34  89 N7        29.84F WCI  32
SPENCER        CLOUDY    39  31  72 NE16      29.87S WCI  30
STORM LAKE *   CLOUDY    36  34  93 NE16      29.82F WCI  26
$$

IAZ055>058-069>071-079>083-090>094-212000-
   SOUTHWEST IOWA

CITY           SKY/WX    TMP DP  RH WIND       PRES   REMARKS
ATLANTIC *     FOG       39  39 100 NE10      29.74F VSB 1   WCI  32
AUDUBON *      LGT RAIN  39  37  93 NE15      29.76F VSB 1   WCI  31
CLARINDA *     CLOUDY    45  45 100 N6          N/A  FOG
COUNCIL BLFS * FOG       39  39 100 N9        29.74F VSB 3/4 WCI  33
CRESTON *      FOG       41  41 100 E12       29.74F VSB<1/4
HARLAN  *      CLOUDY    39  39 100 N9        29.78F FOG     WCI  33
LAMONI         CLOUDY    50  49  96 SE6       29.73F
RED OAK *      FOG       43  41  93 NE8       29.72F VSB 1/4
SHENANDOAH *   FOG       43  43 100 NE7       29.72F VSB 1/2
$$

IAZ047>049-059>061-072>074-084-212000-
   CENTRAL IOWA

CITY           SKY/WX    TMP DP  RH WIND       PRES   REMARKS
AMES           CLOUDY    40  40 100 NE8       29.80F FOG     WCI  34
ANKENY *       MIX PCPN  41  39  93 E7        29.80F VSB 1/2
BOONE *        FOG       39  39 100 NE12      29.78F VSB<1/4 WCI  32
CHARITON *     FOG       45  45 100 E6        29.75F VSB 1
DES MOINES     DRZL/FOG  41  40  96 NE8       29.78F VSB 1
GRINNELL*      CLOUDY    40  38  95 E10       29.81F FOG     WCI  33
KNOXVILLE *    FOG       41  41 100 E7        29.76F VSB 1/4
MARSHALLTOWN   LGT RAIN  39  39 100 E12       29.80F FOG     WCI  32
NEWTON *       CLOUDY    41  41 100 E13       29.79F FOG
PELLA *        DRZL/FOG  40  40  99 E7        29.80F VSB 3/4
$$

IAZ004>006-015-016-023>025-035-036-212000-
   NORTH CENTRAL IOWA

CITY           SKY/WX    TMP DP  RH WIND       PRES   REMARKS
ALGONA *       CLOUDY    36 N/A N/A NE10      29.85F WCI  28
CLARION *      CLOUDY    36  36 100 NE13      29.83F FOG     WCI  27
ESTHERVILLE    CLOUDY    36  32  85 NE13      29.87F WCI  27
FORT DODGE *   CLOUDY    36  34  92 NE9       29.82F FOG     WCI  29
MASON CITY     CLOUDY    36  33  89 NE6       29.87F FOG     WCI  31
FOREST CITY *  CLOUDY    37  34  87 NE3       29.86F
WEBSTER CITY * CLOUDY    37  37 100 NE10      29.79F FOG     WCI  30
IOWA FALLS *   FOG       37  37  98 NE8       29.84F VSB 3/4 WCI  31
$$

IAZ007>011-017>019-026>030-037>042-050>054-066-212000-
   NORTHEAST IOWA

CITY           SKY/WX    TMP DP  RH WIND       PRES   REMARKS
CEDAR RAPIDS   CLOUDY    43  39  86 E12       29.82F FOG
CHARLES CITY * CLOUDY    36  36 100 NE8       29.86F FOG     WCI  29
CLINTON *      CLOUDY    42  40  92 E9        29.87F FOG
DECORAH *      CLOUDY    34  32  93 CALM      29.87F FOG
DUBUQUE        CLOUDY    38  34  85 NE5       29.86F FOG     WCI  34
MONTICELLO *   CLOUDY    41  39  93 CALM      29.85F FOG
OELWEIN *      CLOUDY    37  37 100 E9G15     29.85F FOG     WCI  31
WATERLOO       LGT RAIN  38  37  97 E6        29.84F FOG     WCI  33
$$

IAZ064-065-067-068-078-212000-
   EAST CENTRAL IOWA

CITY           SKY/WX    TMP DP  RH WIND       PRES   REMARKS
DAVENPORT      CLOUDY    43  41  93 E7        29.87F FOG
IOWA CITY      FOG       43  40  89 NE7       29.84F VSB 1
MT. PLEASANT * CLOUDY    46  43  87 SE6       29.81F
MUSCATINE *    CLOUDY    43  41  93 NE6       29.84F FOG
QUAD CITIES    FOG       44  43  96 E7        29.84F VSB 1
$$

IAZ062-063-075>077-085>089-095>099-212000-
   SOUTHEAST IOWA

CITY           SKY/WX    TMP DP  RH WIND       PRES   REMARKS
BURLINGTON     CLOUDY    50  45  83 SE5       29.81F
FAIRFIELD *    CLOUDY    46  43  87 E6        29.80F
FORT MADISON * CLOUDY    50  46  87 SE6       29.82F
KEOKUK *       CLOUDY    52  48  87 SE6       29.80F
OSKALOOSA *    CLOUDY    42  41  97 E7        29.80F FOG
OTTUMWA        CLOUDY    45  42  89 E7        29.79F
WASHINGTON *   CLOUDY    43  43 100 E8        29.83F FOG
$$

ABBREVIATIONS USED IN REMARKS
   TC - TEMPERATURES IN CELSIUS
  WCI - WIND CHILL INDEX
   HX - HEAT INDEX
  VSB - VISIBILITY
$$




USA.gov is the U.S. government's official web portal to all federal, state and local government web resources and services.